Location: Triton
(47.6048°N, 122.9899°W)
Time: 03:05:40
(UTC+00:00)

Envisat - Visible Passes

Search period start: 18 February 2026 00:00
Search period end: 28 February 2026 00:00
Orbit: 761 x 763 km, 98.4° (Epoch: 17 February)

Date Brightness Start Highest point End Pass type
(mag) Time Alt. Az. Time Alt. Az. Time Alt. Az.
18 Feb 5.5 12:01:11 10° N 12:01:28 11° N 12:01:28 11° N visible
19 Feb 5.7 11:23:00 10° N 11:23:21 12° N 11:23:21 12° N visible
20 Feb 6.0 10:45:12 10° NNE 10:45:13 10° NNE 10:45:13 10° NNE visible
20 Feb 5.4 12:25:01 10° NNW 12:25:20 11° NNW 12:25:20 11° NNW visible
21 Feb 5.4 11:46:33 10° N 11:47:13 14° N 11:47:13 14° N visible
22 Feb 5.6 11:08:31 10° NNE 11:09:05 13° NNE 11:09:05 13° NNE visible
22 Feb 5.3 12:49:11 10° NNW 12:49:13 10° NNW 12:49:13 10° NNW visible
23 Feb 6.0 10:30:51 10° NNE 10:30:58 11° NNE 10:30:58 11° NNE visible
23 Feb 5.2 12:10:15 10° N 12:11:05 14° NNW 12:11:05 14° NNW visible
24 Feb 5.3 11:31:59 10° N 11:32:58 16° N 11:32:58 16° N visible
25 Feb 5.6 10:54:05 10° NNE 10:54:51 14° NNE 10:54:51 14° NNE visible
25 Feb 5.2 12:34:11 10° NNW 12:34:58 13° NNW 12:34:58 13° NNW visible
26 Feb 6.0 10:16:35 10° NNE 10:16:43 11° NNE 10:16:43 11° NNE visible
26 Feb 5.1 11:55:35 10° N 11:56:51 17° N 11:56:51 17° N visible
27 Feb 5.2 11:17:27 10° N 11:18:43 18° N 11:18:43 18° N visible
27 Feb 5.2 12:58:41 10° NNW 12:58:52 10° NNW 12:58:52 10° NNW visible
